Delray Beach, FL (33444)

7:27 PM EDT on August 24, 2016 (GMT -0400)
Delray Beach | | Change Station

Elev 30 ft 26.47 °N, 80.09 °W | Updated 10 seconds ago

Rain
Rain
80.2 °F
Feels Like 86 °F
N
0.0
Wind Variable Wind from South
Gusts 2.7 mph

Today
High -- | Low -- °F
--% Chance of Precip.
Yesterday
High -- | Low -- °F
Precip. -- in
Pressure 30.01 in
Visibility 10.0 miles
Clouds Few 1900 ft
Scattered Clouds 4300 ft
Mostly Cloudy 6000 ft
Heat Index 86 °F
Dew Point 76 °F
Humidity 86%
Rainfall 0.18 in
Snow Depth Not available.
6:56 AM 7:47 PM
Waning Gibbous, 52% visible
SPECI KPMP 242322Z 35006KT 10SM FEW019 SCT043 BKN060 29/26 A3001 RMK AO2 LTG DSNT ALQDS RAB2254E21 P0002 T02890256 $
Pressure 30.01 in
Visibility 10.0 miles
Clouds Few 1900 ft
Scattered Clouds 4300 ft
Mostly Cloudy 6000 ft
Heat Index 86 °F
Dew Point 76 °F
Humidity 86%
Rainfall 0.18 in
Snow Depth Not available.
6:56 AM 7:47 PM
Waning Gibbous, 52% visible
SPECI KPMP 242322Z 35006KT 10SM FEW019 SCT043 BKN060 29/26 A3001 RMK AO2 LTG DSNT ALQDS RAB2254E21 P0002 T02890256 $
A tropical disturbance we've monitored since last week, may have a dangerous future in store for the southeast U.S. and Gulf coasts this weekend into next week. The National Weather Service has issued a flash flood watch for Puerto Rico and the U.S. Virgin Islands. Rainfall totals of 2-4 inches (locally higher) are expected through Wednesday night in those areas.

The National Hurricane Center says this system has a medium to high chance of development into a tropical depression or tropical storm over the next 2 to 5 days. A tight consensus of our guidance suggests the disturbance should continue in a general west or west-northwest trajectory the next several days.

10-Day Weather Forecast

Almanac

Astronomy

Aug. 24, 2016 Rise Set
Actual Time
Civil Twilight
Nautical Twilight
Astronomical Twilight
Moon
Length of Visible Light
Length of Day
Tomorrow will be .
, % of the Moon is Illuminated

Today's Extremes

State Highs State Lows

Community

WunderPhotos

Upload Photos

1,934,731 photos uploaded!

WunderBlog® & News

Nearby

Air Quality

  Air Quality AQ Index Pollutant
Not available.

Snow Depth

Station Depth Elevation

Earthquake Activity

City Distance Mag. Time & Date
Minimum magnitude displayed is 2.5.

Coastal Water Temperatures

Place Temperature

Stations

Nearby Weather Stations

Station Location Temp. Windchill Dew Point Humidity Wind Precip. Elev Updated Type
                   

Watches & Warnings

There are currently no watches in effect.